Regional Weather Roundup
Issued by NWS State College, PA

Home | Current Version | Previous Version | Text Only | Print | Product List | Glossary Off
Versions: 1 2 3 4 5 6 7 8 9 10 11 12 13 14 15 16 17 18 19 20 21 22 23 24 25 26 27 28 29 30 31 32 33 34 35 36 37 38 39 40 41 42 43 44 45 46 47 48 49 50

000
ASUS41 KCTP 291003
RWRCTP

REGIONAL WEATHER ROUNDUP
NATIONAL WEATHER SERVICE STATE COLLEGE PA
600 AM EDT FRI MAY 29 2015

Note: "fair" indicates few or no clouds below 12,000 feet with no
significant weather and/or obstructions to visibility.

* = STATION THAT DOES NOT REPORT PRECIPITATION /E.G. RAIN...SNOW...ETC/
    THUNDER OR FOG.

PAZ002>004-007>009-013>016-020>023-029>032-291100-
WESTERN PENNSYLVANIA

CITY           SKY/WX    TMP DP  RH WIND       PRES   REMARKS
ERIE           CLEAR     65  51  60 SE14      30.21S
MEADVILLE      CLEAR     61  51  70 E5        30.24S
FRANKLIN*      CLEAR     55  48  76 E3        30.27S
NEW CASTLE     FAIR      55  55 100 CALM      30.24R
BEAVER COUNTY  NOT AVBL
BUTLER*        CLEAR     55  52  88 NE6       30.26R
PITTSBURGH INT MOCLDY    61  54  77 E5        30.22R
PITTSBURGH     CLEAR     61  49  64 E5        30.22R
INDIANA*       CLEAR     61  54  77 E6        30.29R
LATROBE        MOCLDY    70  54  56 CALM      30.25R
WASHINGTON CO*   N/A     54  52  94 CALM      30.23S VSB 1/2
$$

PAZ004>006-010>012-017>019-024>028-033>037-041-042-045-046-049>053-291100-
CENTRAL PENNSYLVANIA

CITY           SKY/WX    TMP DP  RH WIND       PRES   REMARKS
BRADFORD       CLEAR     46  44  93 SE3       30.31R FOG
DUBOIS         CLEAR     56  50  80 E6        30.28R
CLEARFIELD     CLEAR     50  48  93 N8        30.30R
JOHNSTOWN      PTCLDY    62  49  62 E6        30.29R
ALTOONA        CLEAR     57  52  83 E3        30.30R
STATE COLLEGE  CLEAR     54  52  94 CALM      30.30R
WILLIAMSPORT   CLEAR     54  51  90 CALM      30.29R
SELINSGROVE    CLEAR     54  52  93 CALM      30.30R FOG
FT INDIANTOWN  CLEAR     56  54  93 NE2       30.28R FOG
CAPITAL CITY   CLEAR     59  55  87 CALM      30.28R
HARRISBURG     PTCLDY    62  54  74 N3        30.27R
YORK           PTCLDY    58  56  93 CALM      30.27R
$$

PAZ038>040-043-044-047-048-054-055-060>062-067>071-291100-
EASTERN PENNSYLVANIA

CITY           SKY/WX    TMP DP  RH WIND       PRES   REMARKS
SCRANTON       CLEAR     55  50  83 E5        30.31R
MOUNT POCONO   CLEAR     55  32  41 NE5       30.32R
ALLENTOWN      CLEAR     55  52  89 N3        30.29R
QUAKERTOWN*    SUNNY     55  52  88 CALM      30.30R
READING        CLEAR     60  53  77 N6        30.27R
LANCASTER      CLEAR     60  53  77 E6        30.27R
COATESVILLE    SUNNY     63  55  77 NE3       30.29R
POTTSTOWN      CLEAR     59  54  83 CALM      30.30R
BLUE BELL      CLEAR     55  54  94 CALM      30.28R
DOYLESTOWN     CLEAR     59  53  80 VRB3      30.28R
WILLOW GROVE   NOT AVBL
NORTH PHILA    CLEAR     64  52  64 NE6       30.29R
PHILADELPHIA   PTCLDY    66  55  67 E7        30.27R
$$



USA.gov is the U.S. government's official web portal to all federal, state and local government web resources and services.